• In Uzbekistan
  • List of Countries
  • For 7 days
  • Water Temperature
  • Satellite Maps
  • Weather Map
  • Weather Widgets
  • user-avatar
    Login

    Hourly Weather Serowe

    Today, 23 August, Wednesday

    Time Temperature Precipitation Wind Pressure Humidity
    00:00 +19°C° 0 mm 4 mps 667 mmHg 17%
    01:00 +17°C° 0 mm 5 mps 667 mmHg 18%
    02:00 +16°C° 0 mm 5 mps 666 mmHg 18%
    03:00 +15°C° 0 mm 5 mps 666 mmHg 19%
    04:00 +14°C° 0 mm 5 mps 666 mmHg 21%
    05:00 +13°C° 0 mm 5 mps 666 mmHg 22%
    06:00 +13°C° 0 mm 5 mps 666 mmHg 21%
    07:00 +13°C° 0 mm 5 mps 667 mmHg 21%
    08:00 +13°C° 0 mm 5 mps 667 mmHg 18%
    09:00 +16°C° 0 mm 5 mps 668 mmHg 15%
    10:00 +19°C° 0 mm 4 mps 668 mmHg 12%
    11:00 +21°C° 0 mm 4 mps 669 mmHg 9%
    12:00 +23°C° 0 mm 4 mps 669 mmHg 7%
    13:00 +25°C° 0 mm 3 mps 668 mmHg 6%
    14:00 +27°C° 0 mm 3 mps 668 mmHg 5%
    15:00 +27°C° 0 mm 2 mps 668 mmHg 5%
    16:00 +27°C° 0 mm 2 mps 667 mmHg 5%
    17:00 +26°C° 0 mm 1 mps 667 mmHg 5%
    18:00 +24°C° 0 mm 1 mps 667 mmHg 6%
    19:00 +22°C° 0 mm 1 mps 667 mmHg 7%
    20:00 +20°C° 0 mm 1 mps 667 mmHg 8%
    21:00 +19°C° 0 mm 1 mps 667 mmHg 8%
    22:00 +18°C° 0 mm 1 mps 667 mmHg 9%
    23:00 +18°C° 0 mm 1 mps 667 mmHg 9%

    Tomorrow, 24 August, Thursday

    Time Temperature Precipitation Wind Pressure Humidity
    00:00 +16°C° 0 mm 1 mps 667 mmHg 10%
    01:00 +16°C° 0 mm 1 mps 666 mmHg 10%
    02:00 +15°C° 0 mm 1 mps 666 mmHg 10%
    03:00 +15°C° 0 mm 1 mps 666 mmHg 11%
    04:00 +14°C° 0 mm 1 mps 666 mmHg 11%
    05:00 +14°C° 0 mm 1 mps 665 mmHg 12%
    06:00 +15°C° 0 mm 1 mps 666 mmHg 11%
    07:00 +16°C° 0 mm 1 mps 666 mmHg 11%
    08:00 +18°C° 0 mm 1 mps 667 mmHg 10%
    09:00 +21°C° 0 mm 1 mps 668 mmHg 9%
    10:00 +24°C° 0 mm 2 mps 668 mmHg 7%
    11:00 +26°C° 0 mm 2 mps 669 mmHg 6%
    12:00 +28°C° 0 mm 3 mps 669 mmHg 6%
    13:00 +29°C° 0 mm 3 mps 668 mmHg 5%
    14:00 +30°C° 0 mm 4 mps 668 mmHg 5%
    15:00 +30°C° 0 mm 4 mps 667 mmHg 5%
    16:00 +29°C° 0 mm 4 mps 667 mmHg 5%
    17:00 +29°C° 0 mm 4 mps 667 mmHg 6%
    18:00 +27°C° 0 mm 3 mps 667 mmHg 7%
    19:00 +25°C° 0 mm 2 mps 667 mmHg 8%
    20:00 +21°C° 0 mm 2 mps 666 mmHg 9%
    21:00 +21°C° 0 mm 2 mps 666 mmHg 10%
    22:00 +21°C° 0 mm 1 mps 667 mmHg 10%
    23:00 +20°C° 0 mm 1 mps 667 mmHg 11%

    Day after tomorrow, 25 August, Friday

    Time Temperature Precipitation Wind Pressure Humidity
    00:00 +20°C° 0 mm 1 mps 666 mmHg 11%
    01:00 +19°C° 0 mm 1 mps 666 mmHg 11%
    02:00 +19°C° 0 mm 1 mps 666 mmHg 12%
    03:00 +18°C° 0 mm 1 mps 665 mmHg 12%
    04:00 +16°C° 0 mm 1 mps 665 mmHg 12%
    05:00 +16°C° 0 mm 1 mps 665 mmHg 13%
    06:00 +18°C° 0 mm 1 mps 666 mmHg 12%
    07:00 +19°C° 0 mm 1 mps 666 mmHg 11%
    08:00 +19°C° 0 mm 2 mps 667 mmHg 10%
    09:00 +23°C° 0 mm 2 mps 668 mmHg 9%
    10:00 +26°C° 0 mm 3 mps 668 mmHg 7%
    11:00 +29°C° 0 mm 4 mps 669 mmHg 6%
    12:00 +29°C° 0 mm 3 mps 668 mmHg 6%
    13:00 +30°C° 0 mm 3 mps 668 mmHg 6%
    14:00 +31°C° 0 mm 3 mps 667 mmHg 6%
    15:00 +31°C° 0 mm 3 mps 667 mmHg 6%
    16:00 +31°C° 0 mm 3 mps 667 mmHg 6%
    17:00 +31°C° 0 mm 3 mps 666 mmHg 7%
    18:00 +28°C° 0 mm 3 mps 666 mmHg 11%
    19:00 +26°C° 0 mm 4 mps 666 mmHg 15%
    20:00 +23°C° 0 mm 4 mps 666 mmHg 19%
    21:00 +22°C° 0 mm 4 mps 667 mmHg 27%
    22:00 +21°C° 0 mm 4 mps 667 mmHg 36%
    23:00 +20°C° 0 mm 5 mps 667 mmHg 44%

    26 August, Saturday

    Time Temperature Precipitation Wind Pressure Humidity
    00:00 +19°C° 0 mm 5 mps 667 mmHg 50%
    01:00 +17°C° 0 mm 6 mps 667 mmHg 56%
    02:00 +16°C° 0 mm 6 mps 667 mmHg 62%
    03:00 +15°C° 0 mm 7 mps 667 mmHg 67%
    04:00 +15°C° 0 mm 8 mps 667 mmHg 73%
    05:00 +13°C° 0 mm 9 mps 667 mmHg 79%
    06:00 +15°C° 0 mm 9 mps 667 mmHg 77%
    07:00 +15°C° 0 mm 9 mps 668 mmHg 74%
    08:00 +15°C° 0 mm 9 mps 668 mmHg 72%
    09:00 +16°C° 0 mm 9 mps 669 mmHg 69%
    10:00 +17°C° 0 mm 9 mps 669 mmHg 67%
    11:00 +17°C° 0 mm 9 mps 669 mmHg 64%
    12:00 +20°C° 0 mm 8 mps 668 mmHg 58%
    13:00 +22°C° 0 mm 8 mps 668 mmHg 51%
    14:00 +24°C° 0 mm 8 mps 667 mmHg 45%
    15:00 +24°C° 0 mm 7 mps 667 mmHg 46%
    16:00 +23°C° 0 mm 7 mps 667 mmHg 47%
    17:00 +23°C° 0 mm 6 mps 666 mmHg 48%
    18:00 +21°C° 0 mm 6 mps 667 mmHg 55%
    19:00 +20°C° 0 mm 7 mps 667 mmHg 62%
    20:00 +17°C° 0 mm 7 mps 667 mmHg 68%
    21:00 +16°C° 0 mm 7 mps 667 mmHg 72%
    22:00 +15°C° 0 mm 7 mps 667 mmHg 76%
    23:00 +15°C° 0 mm 7 mps 668 mmHg 80%

    27 August, Sunday

    Time Temperature Precipitation Wind Pressure Humidity
    00:00 +15°C° 0 mm 7 mps 667 mmHg 81%
    01:00 +15°C° 0 mm 7 mps 667 mmHg 81%
    02:00 +15°C° 0 mm 7 mps 667 mmHg 82%
    03:00 +15°C° 0 mm 7 mps 667 mmHg 82%
    04:00 +15°C° 0 mm 6 mps 667 mmHg 83%
    05:00 +15°C° 0 mm 6 mps 667 mmHg 84%
    06:00 +15°C° 0 mm 6 mps 668 mmHg 82%
    07:00 +15°C° 0 mm 6 mps 668 mmHg 79%
    08:00 +16°C° 0 mm 6 mps 669 mmHg 77%
    09:00 +19°C° 0 mm 6 mps 669 mmHg 69%
    10:00 +20°C° 0 mm 5 mps 670 mmHg 60%
    11:00 +22°C° 0 mm 5 mps 670 mmHg 51%
    12:00 +25°C° 0 mm 4 mps 669 mmHg 46%
    13:00 +26°C° 0 mm 4 mps 669 mmHg 40%
    14:00 +28°C° 0 mm 3 mps 668 mmHg 35%
    15:00 +28°C° 0 mm 3 mps 668 mmHg 33%
    16:00 +28°C° 0 mm 3 mps 668 mmHg 32%
    17:00 +28°C° 0 mm 3 mps 668 mmHg 31%
    18:00 +27°C° 0 mm 4 mps 668 mmHg 36%
    19:00 +25°C° 0 mm 4 mps 668 mmHg 42%
    20:00 +22°C° 0 mm 5 mps 669 mmHg 47%
    21:00 +21°C° 0 mm 5 mps 669 mmHg 50%
    22:00 +20°C° 0 mm 4 mps 669 mmHg 54%
    23:00 +20°C° 0 mm 4 mps 669 mmHg 57%

    28 August, Monday

    Time Temperature Precipitation Wind Pressure Humidity
    00:00 +19°C° 0 mm 4 mps 669 mmHg 60%
    01:00 +17°C° 0 mm 5 mps 669 mmHg 62%
    02:00 +17°C° 0 mm 5 mps 668 mmHg 65%
    03:00 +16°C° 0 mm 5 mps 669 mmHg 67%
    04:00 +16°C° 0 mm 5 mps 669 mmHg 70%
    05:00 +15°C° 0 mm 5 mps 669 mmHg 73%
    06:00 +16°C° 0 mm 6 mps 669 mmHg 70%
    07:00 +17°C° 0 mm 7 mps 670 mmHg 67%
    08:00 +17°C° 0 mm 7 mps 670 mmHg 64%
    09:00 +20°C° 0 mm 8 mps 670 mmHg 56%
    10:00 +22°C° 0 mm 8 mps 671 mmHg 48%
    11:00 +24°C° 0 mm 9 mps 671 mmHg 40%
    12:00 +26°C° 0 mm 8 mps 671 mmHg 38%
    13:00 +27°C° 0 mm 8 mps 670 mmHg 35%
    14:00 +28°C° 0 mm 8 mps 669 mmHg 32%
    15:00 +28°C° 0 mm 8 mps 669 mmHg 34%
    16:00 +27°C° 0 mm 8 mps 669 mmHg 35%
    17:00 +27°C° 0 mm 7 mps 669 mmHg 37%
    18:00 +24°C° 0 mm 7 mps 669 mmHg 42%
    19:00 +23°C° 0 mm 6 mps 669 mmHg 47%
    20:00 +21°C° 0 mm 6 mps 669 mmHg 52%
    21:00 +20°C° 0 mm 6 mps 670 mmHg 58%
    22:00 +19°C° 0 mm 6 mps 670 mmHg 64%
    23:00 +17°C° 0 mm 6 mps 670 mmHg 70%
    Show more